User: anonymous
Location: Solon
(41.3849°N, 81.4081°W)
Time: 20:54:42
(UTC-04:00)
Language:

CZ-2C R/B - Orbit

View from above orbital plane
View from above orbital plane
View from above satellite
View from above satellite

Ground track
Ground track

The orbit data is extracted from the following two-line orbital elements,

1 28480U 04046B   14257.51607185  .00000131  00000-0  65879-4 0  4289
2 28480 098.1019 046.6716 0141482 317.9663 080.5931 14.25329867510815
Epoch (UTC): 14 September 2014 12:23:08
Eccentricity: 0.0141482
inclination: 98.1019°
perigee height: 706 km
apogee height: 909 km
right ascension of ascending node: 46.6716°
argument of perigee: 317.9663°
revolutions per day: 14.25329867
mean anomaly at epoch: 80.5931°
orbit number at epoch: 51081

The dashed part of the orbit path shows where the satellite is in the earth's shadow,  

DLR